sat.trackr.live / text

‹ back to catalog

STARLINK-6204

NORAD 56488 · 2023-064AS

PAYLOAD ACTIVE UNKNOWN

§ Identity

Operator
Country
US
Launch date
2023-05-10
Launch site
AFWTR
Launch vehicle
Mass (kg)
RCS (m²)

Purposes: comms

External: N2YO · Heavens-Above · Gunter

§ Orbital elements

Epoch: 2026-09-20T14:04:07.807872Z

Period
96.11 min
Inclination
70.0000°
Eccentricity
0.0003551
Mean motion
14.98330786 rev/d
Perigee alt
569.6 km
Apogee alt
574.5 km
Semi-major
6,950.2 km
B*
-3.1982e-5
RAAN
333.1543°
Arg perigee
268.7940°
Mean anomaly
91.2812°
Rev number
18,542

§ Raw data

STARLINK-62041 56488U 23064AS  26263.58620148 -.00000475  00000+0 -31982-4 0  99932 56488  70.0000 333.1543 0003551 268.7940  91.2812 14.98330786185424

JSON: /api/v1/satellites/56488 · /tle

For live sub-satellite position, see the globe view (requires WebGL).

§ Visibility from observer

Set your observer location to see the next 7 days of passes ≥ 10°. The values pass through the URL so the page stays shareable.

No JS? Fill the form by hand. The geolocation button needs JavaScript.